UAL305 KEWR-LDSP

Flight info

Callsign UAL305
Flight time N/A
Altitude 35000
Route MERIT DCT HFD DCT PUT DCT BOS DCT WHALE N251B NICSO/M084F370 DCT 48N050W 49N040W 50N030W 51N020W DCT DINIM DCT ELSOX DCT RATKA/N0481F370 DCT LARLA/N0482F390 DCT OTOFE UN491 POGZI DCT GELTA DCT LUVAL DCT SHARA DCT DEVDI DCT RIPUS DCT RESIA DCT IXONA DCT SAL
Aircraft B772/H-SDE2E3FGHIJ5LORVWXY/A1E2C4

Departure

Time N/A
Airport Newark Liberty International Airport (KEWR)

Arrival

Time 2026-05-06 20:50
Airport Split Saint Jerome Airport (LDSP)
Time Latitude Longitude Altitude Speed Heading
2026-05-06 13:51 43.48999 -64.02784 35097 ft 507 kts 58°
2026-05-06 13:51 43.52478 -63.94347 35097 ft 507 kts 58°
2026-05-06 13:52 43.55936 -63.85936 35098 ft 507 kts 58°
2026-05-06 13:52 43.59408 -63.77466 35101 ft 506 kts 58°
2026-05-06 13:53 43.62851 -63.69043 35105 ft 506 kts 58°
2026-05-06 13:53 43.66284 -63.60620 35105 ft 506 kts 58°
2026-05-06 13:54 43.69716 -63.52175 35107 ft 506 kts 58°
2026-05-06 13:54 43.73165 -63.43661 35109 ft 506 kts 58°
2026-05-06 13:55 43.76589 -63.35183 35113 ft 506 kts 58°
2026-05-06 13:55 43.80006 -63.26699 35111 ft 507 kts 59°
2026-05-06 13:56 43.83416 -63.18209 35112 ft 507 kts 59°
2026-05-06 13:56 43.86814 -63.09721 35113 ft 507 kts 59°
2026-05-06 13:57 43.90219 -63.01190 35115 ft 507 kts 59°
2026-05-06 13:57 43.93615 -62.92656 35117 ft 508 kts 59°
2026-05-06 13:58 43.97017 -62.84080 35121 ft 508 kts 60°
2026-05-06 13:58 44.00397 -62.75535 35126 ft 508 kts 60°
2026-05-06 13:59 44.03793 -62.66922 35135 ft 509 kts 60°
2026-05-06 13:59 44.07183 -62.58300 35150 ft 509 kts 60°
2026-05-06 14:00 44.10556 -62.49693 35157 ft 510 kts 60°
2026-05-06 14:00 44.13930 -62.41057 35149 ft 511 kts 60°
2026-05-06 14:01 44.17325 -62.32341 35141 ft 511 kts 61°
2026-05-06 14:01 44.20679 -62.23705 35144 ft 512 kts 61°
2026-05-06 14:02 44.24052 -62.14991 35149 ft 511 kts 61°
2026-05-06 14:02 44.27422 -62.06259 35153 ft 512 kts 61°
2026-05-06 14:03 44.30771 -61.97556 35158 ft 512 kts 61°
2026-05-06 14:03 44.34114 -61.88839 35160 ft 512 kts 61°
2026-05-06 14:04 44.37450 -61.80111 35163 ft 511 kts 61°
2026-05-06 14:04 44.40799 -61.71327 35168 ft 511 kts 61°
2026-05-06 14:05 44.44112 -61.62608 35172 ft 511 kts 61°
2026-05-06 14:05 44.47432 -61.53842 35175 ft 511 kts 61°
2026-05-06 14:06 44.50744 -61.45068 35178 ft 510 kts 61°
2026-05-06 14:06 44.54019 -61.36367 35180 ft 510 kts 61°
2026-05-06 14:07 44.57322 -61.27563 35177 ft 509 kts 62°
2026-05-06 14:07 44.60585 -61.18838 35178 ft 509 kts 62°
2026-05-06 14:08 44.63870 -61.10027 35178 ft 508 kts 62°
2026-05-06 14:08 44.67112 -61.01302 35177 ft 508 kts 62°
2026-05-06 14:09 44.70374 -60.92495 35177 ft 507 kts 62°
2026-05-06 14:09 44.73590 -60.83786 35177 ft 507 kts 62°
2026-05-06 14:10 44.76831 -60.74981 35177 ft 507 kts 62°
2026-05-06 14:10 44.80066 -60.66164 35178 ft 507 kts 62°
2026-05-06 14:11 44.83270 -60.57402 35178 ft 507 kts 62°
2026-05-06 14:11 44.86475 -60.48610 35179 ft 506 kts 62°
2026-05-06 14:12 44.89668 -60.39821 35179 ft 506 kts 62°
2026-05-06 14:12 44.92876 -60.30966 35174 ft 506 kts 63°
2026-05-06 14:13 44.96044 -60.22190 35173 ft 506 kts 63°
2026-05-06 14:13 44.99232 -60.13336 35171 ft 506 kts 63°
2026-05-06 14:14 45.02392 -60.04527 35170 ft 506 kts 63°
2026-05-06 14:14 45.05570 -59.95638 35168 ft 506 kts 63°
2026-05-06 14:15 45.08726 -59.86780 35178 ft 506 kts 63°
2026-05-06 14:15 45.11885 -59.77886 35190 ft 506 kts 63°
2026-05-06 14:16 45.15027 -59.69010 35190 ft 507 kts 63°
2026-05-06 14:16 45.18171 -59.60102 35184 ft 506 kts 63°
2026-05-06 14:17 45.21288 -59.51235 35180 ft 506 kts 63°
2026-05-06 14:17 45.24415 -59.42315 35176 ft 506 kts 63°
2026-05-06 14:18 45.27524 -59.33418 35171 ft 506 kts 64°
2026-05-06 14:18 45.30645 -59.24453 35165 ft 506 kts 64°
2026-05-06 14:19 45.33747 -59.15515 35164 ft 506 kts 64°
2026-05-06 14:19 45.36836 -59.06588 35163 ft 506 kts 64°
2026-05-06 14:20 45.39917 -58.97648 35162 ft 506 kts 64°
2026-05-06 14:20 45.42994 -58.88692 35163 ft 506 kts 64°
2026-05-06 14:21 45.46085 -58.79666 35163 ft 506 kts 64°
2026-05-06 14:21 45.49142 -58.70707 35165 ft 505 kts 64°
2026-05-06 14:22 45.52182 -58.61770 35169 ft 505 kts 64°
2026-05-06 14:22 45.55230 -58.52778 35174 ft 504 kts 64°
2026-05-06 14:23 45.58270 -58.43780 35179 ft 504 kts 65°
2026-05-06 14:23 45.61296 -58.34790 35184 ft 503 kts 65°
2026-05-06 14:24 45.64306 -58.25819 35183 ft 503 kts 65°
2026-05-06 14:24 45.67314 -58.16826 35185 ft 503 kts 65°
2026-05-06 14:25 45.70309 -58.07835 35187 ft 502 kts 65°
2026-05-06 14:25 45.73284 -57.98876 35189 ft 501 kts 66°
2026-05-06 14:26 45.76259 -57.89889 35189 ft 501 kts 66°
2026-05-06 14:26 45.79227 -57.80890 35188 ft 501 kts 66°
2026-05-06 14:27 45.82177 -57.71912 35190 ft 501 kts 66°
2026-05-06 14:27 45.85126 -57.62909 35192 ft 501 kts 66°
2026-05-06 14:28 45.88086 -57.53843 35195 ft 502 kts 66°
2026-05-06 14:28 45.91020 -57.44820 35198 ft 502 kts 66°
2026-05-06 14:29 45.93964 -57.35739 35201 ft 503 kts 66°
2026-05-06 14:29 45.96891 -57.26677 35201 ft 503 kts 66°
2026-05-06 14:30 45.99825 -57.17562 35205 ft 504 kts 66°
2026-05-06 14:30 46.02749 -57.08447 35217 ft 504 kts 66°
2026-05-06 14:31 46.05680 -56.99274 35225 ft 505 kts 66°
2026-05-06 14:31 46.08596 -56.90118 35220 ft 505 kts 66°
2026-05-06 14:32 46.11499 -56.80970 35213 ft 506 kts 66°
2026-05-06 14:32 46.14413 -56.71756 35216 ft 506 kts 66°
2026-05-06 14:33 46.17317 -56.62541 35221 ft 506 kts 66°
2026-05-06 14:33 46.20215 -56.53308 35225 ft 506 kts 66°
2026-05-06 14:34 46.23087 -56.44125 35228 ft 507 kts 66°
2026-05-06 14:34 46.25981 -56.34842 35229 ft 507 kts 68°
2026-05-06 14:35 46.28865 -56.25555 35224 ft 507 kts 68°
2026-05-06 14:35 46.31721 -56.16322 35222 ft 507 kts 68°
2026-05-06 14:36 46.34572 -56.07075 35224 ft 507 kts 68°
2026-05-06 14:36 46.37425 -55.97784 35227 ft 507 kts 68°
2026-05-06 14:37 46.40276 -55.88469 35230 ft 507 kts 68°
2026-05-06 14:37 46.43120 -55.79141 35232 ft 507 kts 68°
2026-05-06 14:38 46.45944 -55.69841 35233 ft 507 kts 68°
2026-05-06 14:38 46.48776 -55.60485 35234 ft 507 kts 67°
2026-05-06 14:39 46.51574 -55.51204 35234 ft 507 kts 67°
2026-05-06 14:39 46.54387 -55.41839 35234 ft 507 kts 67°
2026-05-06 14:40 46.57185 -55.32488 35231 ft 507 kts 68°
2026-05-06 14:40 46.59980 -55.23115 35228 ft 507 kts 68°
2026-05-06 14:41 46.62764 -55.13739 35226 ft 507 kts 68°
2026-05-06 14:41 46.65554 -55.04311 35225 ft 507 kts 68°
2026-05-06 14:42 46.68312 -54.94953 35230 ft 507 kts 68°
2026-05-06 14:42 46.71070 -54.85563 35235 ft 507 kts 67°
2026-05-06 14:43 46.73829 -54.76130 35234 ft 507 kts 67°
2026-05-06 14:43 46.76580 -54.66687 35230 ft 507 kts 67°
2026-05-06 14:44 46.79317 -54.57260 35228 ft 506 kts 67°
2026-05-06 14:45 46.83391 -54.43155 35224 ft 506 kts 67°
2026-05-06 14:45 46.86107 -54.33709 35215 ft 506 kts 68°
2026-05-06 14:46 46.88812 -54.24263 35206 ft 506 kts 68°
2026-05-06 14:46 46.91518 -54.14780 35201 ft 506 kts 68°
2026-05-06 14:47 46.94208 -54.05311 35197 ft 506 kts 68°
2026-05-06 14:47 46.96903 -53.95791 35201 ft 507 kts 68°
2026-05-06 14:48 46.99586 -53.86276 35207 ft 507 kts 67°
2026-05-06 14:48 47.02254 -53.76775 35206 ft 507 kts 67°
2026-05-06 14:49 47.04916 -53.67256 35202 ft 507 kts 67°
2026-05-06 14:49 47.07582 -53.57688 35204 ft 508 kts 67°
2026-05-06 14:50 47.10235 -53.48128 35206 ft 508 kts 67°
2026-05-06 14:50 47.12888 -53.38532 35206 ft 508 kts 67°
2026-05-06 14:51 47.15530 -53.28934 35203 ft 508 kts 68°
2026-05-06 14:51 47.18154 -53.19360 35204 ft 508 kts 68°
2026-05-06 14:52 47.20771 -53.09779 35206 ft 508 kts 67°
2026-05-06 14:52 47.23394 -53.00135 35209 ft 508 kts 67°
2026-05-06 14:53 47.25994 -52.90536 35210 ft 508 kts 67°
2026-05-06 14:53 47.28585 -52.80928 35209 ft 507 kts 67°
2026-05-06 14:54 47.31186 -52.71249 35208 ft 507 kts 67°
2026-05-06 14:54 47.33763 -52.61617 35204 ft 508 kts 67°
2026-05-06 14:55 47.36327 -52.51993 35200 ft 508 kts 67°
2026-05-06 14:55 47.38900 -52.42297 35194 ft 508 kts 66°
2026-05-06 14:56 47.41457 -52.32620 35191 ft 509 kts 67°
2026-05-06 14:56 47.44017 -52.22896 35531 ft 511 kts 67°
2026-05-06 14:56 47.45304 -52.17991 35897 ft 507 kts 67°
2026-05-06 14:57 47.46555 -52.13211 36200 ft 505 kts 67°
2026-05-06 14:57 47.47825 -52.08350 36430 ft 505 kts 67°
2026-05-06 14:57 47.49077 -52.03546 36643 ft 505 kts 67°
2026-05-06 14:57 47.50339 -51.98708 36897 ft 505 kts 66°
2026-05-06 14:58 47.51595 -51.93886 37175 ft 504 kts 66°
2026-05-06 14:58 47.54105 -51.84228 37273 ft 506 kts 66°
2026-05-06 14:59 47.56597 -51.74598 37231 ft 500 kts 66°
2026-05-06 14:59 47.59073 -51.64992 37220 ft 501 kts 66°
2026-05-06 15:00 47.61549 -51.55345 37192 ft 500 kts 66°
2026-05-06 15:00 47.64002 -51.45751 37203 ft 502 kts 66°
2026-05-06 15:01 47.66471 -51.36050 37220 ft 502 kts 66°
2026-05-06 15:01 47.68901 -51.26461 37206 ft 502 kts 67°
2026-05-06 15:02 47.71349 -51.16761 37198 ft 502 kts 66°
2026-05-06 15:02 47.73776 -51.07103 37197 ft 502 kts 66°
2026-05-06 15:03 47.76204 -50.97399 37197 ft 502 kts 66°
2026-05-06 15:03 47.78620 -50.87703 37197 ft 502 kts 66°
2026-05-06 15:04 47.81017 -50.78038 37197 ft 502 kts 66°
2026-05-06 15:04 47.83423 -50.68303 37197 ft 503 kts 66°
2026-05-06 15:05 47.85827 -50.58527 37196 ft 503 kts 66°
2026-05-06 15:05 47.88216 -50.48768 37195 ft 503 kts 66°
2026-05-06 15:06 47.90582 -50.39062 37195 ft 504 kts 66°
2026-05-06 15:06 47.92977 -50.29195 37187 ft 505 kts 66°
2026-05-06 15:07 47.95352 -50.19364 37184 ft 506 kts 66°
2026-05-06 15:07 47.97711 -50.09558 37184 ft 505 kts 66°
2026-05-06 15:08 47.99974 -49.99673 37170 ft 506 kts 72°
2026-05-06 15:08 48.01523 -49.89454 37172 ft 505 kts 75°
2026-05-06 15:09 48.03002 -49.79258 37184 ft 503 kts 75°
2026-05-06 15:09 48.04464 -49.69094 37184 ft 504 kts 75°
2026-05-06 15:10 48.05917 -49.58910 37181 ft 504 kts 75°
2026-05-06 15:10 48.07371 -49.48651 37181 ft 504 kts 75°
2026-05-06 15:11 48.08807 -49.38453 37181 ft 504 kts 75°
2026-05-06 15:11 48.10235 -49.28231 37176 ft 505 kts 76°
2026-05-06 15:12 48.11657 -49.17983 37179 ft 505 kts 76°
2026-05-06 15:12 48.13072 -49.07707 37179 ft 506 kts 76°
2026-05-06 15:13 48.14481 -48.97413 37180 ft 507 kts 75°
2026-05-06 15:13 48.15885 -48.87075 37180 ft 507 kts 75°
2026-05-06 15:14 48.17274 -48.76776 37181 ft 508 kts 75°
2026-05-06 15:14 48.18652 -48.66483 37181 ft 508 kts 75°
2026-05-06 15:15 48.20034 -48.56087 37182 ft 509 kts 75°
2026-05-06 15:15 48.21395 -48.45774 37183 ft 509 kts 75°
2026-05-06 15:16 48.22760 -48.35346 37183 ft 509 kts 75°
2026-05-06 15:16 48.24102 -48.25031 37176 ft 511 kts 75°
2026-05-06 15:17 48.25452 -48.14573 37176 ft 511 kts 75°
2026-05-06 15:17 48.26789 -48.04129 37177 ft 511 kts 75°
2026-05-06 15:18 48.28112 -47.93722 37178 ft 511 kts 75°
2026-05-06 15:18 48.29424 -47.83321 37179 ft 511 kts 75°
2026-05-06 15:19 48.30734 -47.72855 37178 ft 511 kts 75°
2026-05-06 15:19 48.32033 -47.62399 37177 ft 511 kts 75°
2026-05-06 15:20 48.33318 -47.51971 37177 ft 511 kts 75°
2026-05-06 15:20 48.34602 -47.41468 37178 ft 510 kts 75°
2026-05-06 15:21 48.35868 -47.31030 37168 ft 510 kts 76°
2026-05-06 15:21 48.37124 -47.20587 37160 ft 510 kts 76°
2026-05-06 15:22 48.38368 -47.10170 37156 ft 509 kts 76°
2026-05-06 15:22 48.39606 -46.99715 37157 ft 509 kts 76°
2026-05-06 15:23 48.40837 -46.89233 37159 ft 508 kts 75°
2026-05-06 15:23 48.42046 -46.78848 37160 ft 508 kts 75°
2026-05-06 15:24 48.43250 -46.68425 37161 ft 507 kts 75°
2026-05-06 15:24 48.44441 -46.58030 37162 ft 507 kts 75°
2026-05-06 15:25 48.45630 -46.47565 37163 ft 506 kts 75°
2026-05-06 15:25 48.46798 -46.37203 37164 ft 506 kts 75°
2026-05-06 15:26 48.47966 -46.26742 37157 ft 506 kts 76°
2026-05-06 15:26 48.49116 -46.16364 37158 ft 506 kts 76°
2026-05-06 15:27 48.50264 -46.05901 37158 ft 506 kts 76°
2026-05-06 15:27 48.51392 -45.95538 37159 ft 506 kts 76°
2026-05-06 15:28 48.52520 -45.85088 37157 ft 505 kts 76°
2026-05-06 15:28 48.53633 -45.74681 37157 ft 505 kts 76°
2026-05-06 15:29 48.54741 -45.64232 37160 ft 505 kts 76°
2026-05-06 15:29 48.55838 -45.53793 37161 ft 506 kts 76°
2026-05-06 15:30 48.56921 -45.43382 37160 ft 506 kts 75°
2026-05-06 15:30 48.58003 -45.32896 37157 ft 506 kts 76°
2026-05-06 15:31 48.59068 -45.22472 37155 ft 506 kts 76°
2026-05-06 15:31 48.60128 -45.12001 37160 ft 506 kts 76°
2026-05-06 15:32 48.61698 -44.96314 37164 ft 506 kts 76°
2026-05-06 15:32 48.62734 -44.85834 37165 ft 506 kts 76°
2026-05-06 15:33 48.63758 -44.75382 37167 ft 506 kts 75°
2026-05-06 15:33 48.64774 -44.64906 37168 ft 506 kts 75°
2026-05-06 15:34 48.65781 -44.54418 37170 ft 506 kts 75°
2026-05-06 15:34 48.66779 -44.43924 37171 ft 506 kts 75°
2026-05-06 15:35 48.67770 -44.33402 37170 ft 506 kts 76°
2026-05-06 15:35 48.68753 -44.22857 37166 ft 508 kts 76°
2026-05-06 15:36 48.69724 -44.12327 37167 ft 507 kts 76°
2026-05-06 15:36 48.70686 -44.01797 37169 ft 507 kts 76°
2026-05-06 15:37 48.71637 -43.91266 37170 ft 507 kts 76°
2026-05-06 15:37 48.72581 -43.80708 37162 ft 507 kts 76°
2026-05-06 15:38 48.73514 -43.70172 37159 ft 507 kts 75°
2026-05-06 15:38 48.74441 -43.59572 37165 ft 508 kts 75°
2026-05-06 15:39 48.75358 -43.48987 37169 ft 508 kts 75°
2026-05-06 15:39 48.76270 -43.38332 37169 ft 508 kts 75°
2026-05-06 15:40 48.77175 -43.27649 37162 ft 509 kts 76°
2026-05-06 15:40 48.78063 -43.17032 37161 ft 509 kts 76°
2026-05-06 15:41 48.78946 -43.06359 37162 ft 508 kts 76°
2026-05-06 15:41 48.79819 -42.95690 37162 ft 508 kts 76°
2026-05-06 15:42 48.80684 -42.85007 37164 ft 508 kts 76°
2026-05-06 15:42 48.81533 -42.74379 37165 ft 509 kts 76°
2026-05-06 15:43 48.82367 -42.63821 37166 ft 509 kts 76°
2026-05-06 15:43 48.83198 -42.53179 37168 ft 509 kts 76°
2026-05-06 15:44 48.84017 -42.42548 37170 ft 509 kts 76°
2026-05-06 15:44 48.84824 -42.31960 37167 ft 509 kts 77°
2026-05-06 15:45 48.85628 -42.21267 37165 ft 510 kts 77°
2026-05-06 15:45 48.86421 -42.10585 37168 ft 510 kts 77°
2026-05-06 15:46 48.87200 -41.99961 37169 ft 510 kts 77°
2026-05-06 15:46 48.87973 -41.89281 37155 ft 510 kts 77°
2026-05-06 15:47 48.88736 -41.78595 37151 ft 511 kts 77°
2026-05-06 15:47 48.89487 -41.67943 37170 ft 512 kts 77°
2026-05-06 15:48 48.90233 -41.57209 37200 ft 511 kts 77°
2026-05-06 15:48 48.90964 -41.46536 37226 ft 511 kts 77°
2026-05-06 15:49 48.91690 -41.35865 37231 ft 511 kts 77°
2026-05-06 15:49 48.92405 -41.25098 37222 ft 512 kts 78°
2026-05-06 15:50 48.93108 -41.14370 37223 ft 513 kts 78°
2026-05-06 15:50 48.93799 -41.03634 37223 ft 513 kts 78°
2026-05-06 15:51 48.94485 -40.92891 37223 ft 513 kts 78°
2026-05-06 15:51 48.95164 -40.82175 37231 ft 513 kts 78°
2026-05-06 15:52 48.95834 -40.71365 37224 ft 514 kts 78°
2026-05-06 15:52 48.96490 -40.60575 37230 ft 514 kts 78°
2026-05-06 15:53 48.97150 -40.49809 37229 ft 514 kts 78°
2026-05-06 15:53 48.97792 -40.39016 37236 ft 515 kts 78°
2026-05-06 15:54 48.98423 -40.28189 37230 ft 515 kts 79°
2026-05-06 15:54 48.99049 -40.17387 37228 ft 515 kts 79°
2026-05-06 15:55 48.99649 -40.06533 37231 ft 515 kts 79°
2026-05-06 15:55 49.00328 -39.95725 37229 ft 511 kts 73°
2026-05-06 15:56 49.01887 -39.85363 37232 ft 507 kts 69°
2026-05-06 15:56 49.03500 -39.74912 37207 ft 507 kts 70°
2026-05-06 15:57 49.05052 -39.64480 37202 ft 508 kts 71°
2026-05-06 15:57 49.06570 -39.54007 37224 ft 509 kts 71°
2026-05-06 15:58 49.08076 -39.43481 37229 ft 510 kts 71°
2026-05-06 15:58 49.09557 -39.32973 37229 ft 510 kts 72°
2026-05-06 15:59 49.11034 -39.22378 37234 ft 511 kts 72°
2026-05-06 15:59 49.12501 -39.11842 37235 ft 510 kts 72°
2026-05-06 16:00 49.13943 -39.01290 37240 ft 510 kts 72°
2026-05-06 16:00 49.15379 -38.90725 37243 ft 511 kts 72°
2026-05-06 16:01 49.16812 -38.80121 37245 ft 511 kts 73°
2026-05-06 16:01 49.18220 -38.69579 37241 ft 511 kts 73°
2026-05-06 16:02 49.19631 -38.58973 37243 ft 511 kts 73°
2026-05-06 16:02 49.21026 -38.48353 37241 ft 511 kts 73°
2026-05-06 16:03 49.22422 -38.37746 37245 ft 511 kts 73°
2026-05-06 16:03 49.23802 -38.27156 37241 ft 512 kts 74°
2026-05-06 16:04 49.25174 -38.16534 37238 ft 512 kts 74°
2026-05-06 16:04 49.26546 -38.05846 37243 ft 512 kts 74°
2026-05-06 16:05 49.27902 -37.95204 37244 ft 512 kts 75°
2026-05-06 16:05 49.29243 -37.84582 37238 ft 511 kts 75°
2026-05-06 16:06 49.30576 -37.73941 37238 ft 512 kts 75°
2026-05-06 16:06 49.31907 -37.63229 37250 ft 512 kts 75°
2026-05-06 16:07 49.33223 -37.52542 37253 ft 512 kts 75°
2026-05-06 16:07 49.34523 -37.41902 37255 ft 512 kts 75°
2026-05-06 16:08 49.35823 -37.31189 37249 ft 512 kts 76°
2026-05-06 16:08 49.37112 -37.20469 37247 ft 512 kts 76°
2026-05-06 16:09 49.38383 -37.09811 37248 ft 511 kts 76°
2026-05-06 16:09 49.39652 -36.99083 37246 ft 511 kts 76°
2026-05-06 16:10 49.40901 -36.88440 37231 ft 512 kts 76°
2026-05-06 16:10 49.42152 -36.77689 37215 ft 512 kts 76°
2026-05-06 16:11 49.43389 -36.66955 37214 ft 511 kts 76°
2026-05-06 16:11 49.44614 -36.56253 37213 ft 511 kts 76°
2026-05-06 16:12 49.45828 -36.45542 37213 ft 511 kts 76°
2026-05-06 16:12 49.47030 -36.34848 37213 ft 510 kts 77°
2026-05-06 16:13 49.48216 -36.24202 37208 ft 511 kts 77°
2026-05-06 16:13 49.49404 -36.13453 37209 ft 511 kts 77°
2026-05-06 16:14 49.50575 -36.02752 37210 ft 511 kts 77°
2026-05-06 16:14 49.51743 -35.91986 37211 ft 511 kts 77°
2026-05-06 16:15 49.52898 -35.81249 37212 ft 511 kts 78°
2026-05-06 16:15 49.54044 -35.70488 37216 ft 510 kts 78°
2026-05-06 16:16 49.55179 -35.59739 37218 ft 510 kts 78°
2026-05-06 16:16 49.56298 -35.49038 37220 ft 510 kts 78°
2026-05-06 16:17 49.57414 -35.38269 37220 ft 510 kts 78°
2026-05-06 16:17 49.58511 -35.27583 37217 ft 510 kts 79°
2026-05-06 16:18 49.59609 -35.16782 37217 ft 510 kts 79°
2026-05-06 16:18 49.60696 -35.05989 37217 ft 510 kts 79°
2026-05-06 16:19 49.61763 -34.95292 37217 ft 510 kts 79°
2026-05-06 16:19 49.62830 -34.84497 37216 ft 509 kts 79°
2026-05-06 16:20 49.63884 -34.73709 37216 ft 509 kts 79°
2026-05-06 16:20 49.64920 -34.63017 37216 ft 508 kts 79°
2026-05-06 16:21 49.65951 -34.52254 37216 ft 508 kts 79°
2026-05-06 16:21 49.66970 -34.41521 37215 ft 508 kts 79°
2026-05-06 16:22 49.67977 -34.30796 37212 ft 507 kts 81°
2026-05-06 16:22 49.68979 -34.20023 37212 ft 507 kts 81°
2026-05-06 16:23 49.69964 -34.09309 37216 ft 507 kts 81°
2026-05-06 16:23 49.70940 -33.98593 37221 ft 507 kts 81°
2026-05-06 16:24 49.71912 -33.87799 37222 ft 507 kts 81°
2026-05-06 16:24 49.72870 -33.77064 37226 ft 507 kts 81°
2026-05-06 16:25 49.73816 -33.66325 37244 ft 507 kts 81°
2026-05-06 16:25 49.74751 -33.55602 37262 ft 507 kts 81°
2026-05-06 16:26 49.75681 -33.44818 37265 ft 507 kts 81°
2026-05-06 16:26 49.76595 -33.34108 37266 ft 507 kts 82°
2026-05-06 16:27 49.77505 -33.23321 37263 ft 507 kts 82°
2026-05-06 16:27 49.78404 -33.12535 37264 ft 507 kts 82°
2026-05-06 16:28 49.79293 -33.01744 37264 ft 507 kts 82°
2026-05-06 16:28 49.80173 -32.90948 37264 ft 507 kts 82°
2026-05-06 16:29 49.81040 -32.80172 37265 ft 508 kts 82°
2026-05-06 16:29 49.81900 -32.69362 37264 ft 508 kts 82°
2026-05-06 16:30 49.82465 -32.62192 37264 ft 508 kts 82°
2026-05-06 16:30 49.83585 -32.47784 37264 ft 508 kts 82°
2026-05-06 16:31 49.84418 -32.36929 37264 ft 507 kts 83°
2026-05-06 16:31 49.85231 -32.26193 37260 ft 507 kts 83°
2026-05-06 16:32 49.86041 -32.15350 37261 ft 506 kts 83°
2026-05-06 16:32 49.86836 -32.04579 37261 ft 506 kts 84°
2026-05-06 16:33 49.87620 -31.93818 37262 ft 506 kts 84°
2026-05-06 16:34 49.88781 -31.77621 37264 ft 506 kts 84°
2026-05-06 16:34 49.89546 -31.66762 37265 ft 506 kts 84°
2026-05-06 16:35 49.90295 -31.55995 37268 ft 506 kts 84°
2026-05-06 16:35 49.91038 -31.45150 37268 ft 506 kts 84°
2026-05-06 16:36 49.91765 -31.34405 37271 ft 507 kts 84°
2026-05-06 16:36 49.92488 -31.23566 37268 ft 507 kts 84°
2026-05-06 16:37 49.93205 -31.12655 37270 ft 508 kts 84°
2026-05-06 16:37 49.93906 -31.01842 37271 ft 508 kts 84°
2026-05-06 16:38 49.94599 -30.90948 37264 ft 508 kts 84°
2026-05-06 16:38 49.95281 -30.80114 37254 ft 508 kts 85°
2026-05-06 16:39 49.95953 -30.69259 37248 ft 508 kts 85°
2026-05-06 16:39 49.96617 -30.58363 37248 ft 508 kts 85°
2026-05-06 16:40 49.97273 -30.47440 37246 ft 508 kts 85°
2026-05-06 16:40 49.97914 -30.36598 37247 ft 508 kts 85°
2026-05-06 16:41 49.98546 -30.25721 37241 ft 508 kts 85°
2026-05-06 16:41 49.99168 -30.14843 37241 ft 508 kts 85°
2026-05-06 16:42 49.99779 -30.03969 37242 ft 508 kts 85°
2026-05-06 16:42 50.00666 -29.93091 37244 ft 508 kts 77°
2026-05-06 16:43 50.02335 -29.82454 37243 ft 509 kts 76°
2026-05-06 16:43 50.03958 -29.71799 37244 ft 509 kts 77°
2026-05-06 16:44 50.05528 -29.61143 37248 ft 508 kts 77°
2026-05-06 16:44 50.07074 -29.50426 37253 ft 508 kts 77°
2026-05-06 16:45 50.08598 -29.39691 37257 ft 508 kts 77°
2026-05-06 16:45 50.10099 -29.28998 37254 ft 507 kts 78°
2026-05-06 16:46 50.11584 -29.18309 37254 ft 507 kts 78°
2026-05-06 16:46 50.13054 -29.07640 37254 ft 508 kts 78°
2026-05-06 16:47 50.14521 -28.96904 37257 ft 508 kts 78°
2026-05-06 16:47 50.15972 -28.86204 37258 ft 508 kts 78°
2026-05-06 16:48 50.17422 -28.75428 37261 ft 508 kts 79°
2026-05-06 16:48 50.18854 -28.64665 37259 ft 508 kts 79°
2026-05-06 16:49 50.20277 -28.53956 37264 ft 509 kts 79°
2026-05-06 16:49 50.21696 -28.43133 37260 ft 510 kts 79°
2026-05-06 16:50 50.23111 -28.32319 37261 ft 510 kts 80°
2026-05-06 16:50 50.24505 -28.21578 37258 ft 509 kts 80°
2026-05-06 16:51 50.25893 -28.10756 37254 ft 510 kts 80°
2026-05-06 16:51 50.27277 -27.99944 37257 ft 510 kts 80°
2026-05-06 16:52 50.28655 -27.89064 37257 ft 510 kts 80°
2026-05-06 16:52 50.30012 -27.78278 37260 ft 511 kts 80°
2026-05-06 16:53 50.31358 -27.67411 37254 ft 511 kts 80°
2026-05-06 16:53 50.32700 -27.56542 37259 ft 510 kts 80°
2026-05-06 16:54 50.34042 -27.45647 37263 ft 511 kts 80°
2026-05-06 16:54 50.35353 -27.34777 37262 ft 511 kts 81°
2026-05-06 16:55 50.36675 -27.23876 37260 ft 511 kts 81°
2026-05-06 16:55 50.37959 -27.13025 37261 ft 511 kts 81°
2026-05-06 16:56 50.39245 -27.02103 37267 ft 511 kts 81°
2026-05-06 16:56 50.40527 -26.91229 37267 ft 511 kts 81°
2026-05-06 16:57 50.41803 -26.80301 37281 ft 511 kts 81°
2026-05-06 16:57 50.43066 -26.69361 37293 ft 512 kts 81°
2026-05-06 16:58 50.44318 -26.58406 37300 ft 512 kts 81°
2026-05-06 16:58 50.45561 -26.47464 37303 ft 512 kts 81°
2026-05-06 16:59 50.46787 -26.36508 37301 ft 513 kts 81°
2026-05-06 16:59 50.48029 -26.25483 37295 ft 514 kts 82°
2026-05-06 17:00 50.49247 -26.14503 37294 ft 515 kts 82°
2026-05-06 17:00 50.50452 -26.03468 37292 ft 515 kts 82°
2026-05-06 17:01 50.51659 -25.92397 37285 ft 516 kts 82°
2026-05-06 17:01 50.52846 -25.81333 37288 ft 516 kts 82°
2026-05-06 17:02 50.54014 -25.70290 37293 ft 516 kts 82°
2026-05-06 17:02 50.55190 -25.59174 37295 ft 516 kts 81°
2026-05-06 17:03 50.56348 -25.48116 37287 ft 515 kts 82°
2026-05-06 17:03 50.57492 -25.37075 37287 ft 515 kts 81°
2026-05-06 17:04 50.58633 -25.25939 37281 ft 514 kts 82°
2026-05-06 17:04 50.59752 -25.14895 37282 ft 514 kts 82°
2026-05-06 17:05 50.60858 -25.03867 37282 ft 514 kts 82°
2026-05-06 17:05 50.61974 -24.92756 37274 ft 513 kts 82°
2026-05-06 17:06 50.63062 -24.81692 37258 ft 513 kts 82°
2026-05-06 17:06 50.64133 -24.70614 37244 ft 513 kts 82°
2026-05-06 17:07 50.65208 -24.59558 37238 ft 513 kts 82°
2026-05-06 17:07 50.66270 -24.48472 37235 ft 514 kts 82°
2026-05-06 17:08 50.67316 -24.37421 37222 ft 514 kts 82°
2026-05-06 17:08 50.68354 -24.26290 37195 ft 514 kts 82°
2026-05-06 17:09 50.69380 -24.15184 37185 ft 514 kts 82°
2026-05-06 17:09 50.70396 -24.04079 37185 ft 514 kts 82°
2026-05-06 17:10 50.71403 -23.92954 37183 ft 514 kts 82°
2026-05-06 17:10 50.72396 -23.81862 37184 ft 514 kts 82°
2026-05-06 17:11 50.73386 -23.70695 37196 ft 513 kts 82°
2026-05-06 17:11 50.74356 -23.59612 37197 ft 511 kts 82°
2026-05-06 17:12 50.75313 -23.48573 37186 ft 510 kts 82°
2026-05-06 17:12 50.76262 -23.37497 37186 ft 509 kts 82°
2026-05-06 17:13 50.77190 -23.26533 37178 ft 507 kts 83°
2026-05-06 17:13 50.78108 -23.15573 37170 ft 505 kts 83°
2026-05-06 17:14 50.79019 -23.04561 37168 ft 504 kts 83°
2026-05-06 17:14 50.79911 -22.93655 37168 ft 503 kts 83°
2026-05-06 17:15 50.80789 -22.82784 37169 ft 501 kts 83°
2026-05-06 17:15 50.81656 -22.71925 37169 ft 500 kts 83°
2026-05-06 17:16 50.82514 -22.61056 37168 ft 498 kts 83°
2026-05-06 17:16 50.83354 -22.50274 37168 ft 497 kts 83°
2026-05-06 17:17 50.84190 -22.39410 37161 ft 496 kts 83°
2026-05-06 17:17 50.85006 -22.28685 37147 ft 494 kts 84°
2026-05-06 17:18 50.85812 -22.17949 37141 ft 493 kts 84°
2026-05-06 17:18 50.86611 -22.07172 37141 ft 493 kts 84°
2026-05-06 17:19 50.87396 -21.96441 37127 ft 493 kts 84°
2026-05-06 17:19 50.88170 -21.85743 37104 ft 493 kts 84°
2026-05-06 17:20 50.88935 -21.75019 37098 ft 491 kts 84°
2026-05-06 17:20 50.89690 -21.64294 37091 ft 489 kts 84°
2026-05-06 17:21 50.90429 -21.53655 37078 ft 489 kts 84°
2026-05-06 17:21 50.91161 -21.42960 37077 ft 489 kts 84°
2026-05-06 17:22 50.91882 -21.32294 37076 ft 489 kts 84°
2026-05-06 17:22 50.92589 -21.21686 37074 ft 488 kts 84°
2026-05-06 17:23 50.93292 -21.10994 37074 ft 488 kts 84°
2026-05-06 17:23 50.93983 -21.00336 37073 ft 488 kts 84°
2026-05-06 17:24 50.94663 -20.89679 37071 ft 488 kts 84°
2026-05-06 17:24 50.95336 -20.78998 37068 ft 487 kts 84°
2026-05-06 17:25 50.95995 -20.68371 37067 ft 487 kts 84°
2026-05-06 17:25 50.96645 -20.57730 37066 ft 487 kts 84°
2026-05-06 17:26 50.97288 -20.47032 37065 ft 487 kts 84°
2026-05-06 17:26 50.97919 -20.36373 37064 ft 487 kts 84°
2026-05-06 17:27 50.98541 -20.25712 37061 ft 487 kts 85°
2026-05-06 17:27 50.99155 -20.15013 37060 ft 487 kts 85°
2026-05-06 17:28 50.99756 -20.04368 37055 ft 487 kts 85°
2026-05-06 17:28 51.00093 -19.93629 37046 ft 487 kts 88°
2026-05-06 17:29 51.00330 -19.82937 37041 ft 486 kts 88°
2026-05-06 17:29 51.00547 -19.72253 37040 ft 485 kts 87°
2026-05-06 17:30 51.00750 -19.61641 37040 ft 485 kts 87°
2026-05-06 17:30 51.00940 -19.50998 37040 ft 484 kts 87°
2026-05-06 17:31 51.01120 -19.40331 37039 ft 484 kts 87°
2026-05-06 17:31 51.01289 -19.29685 37037 ft 484 kts 88°
2026-05-06 17:32 51.01447 -19.19081 37036 ft 484 kts 88°
2026-05-06 17:32 51.01596 -19.08448 37035 ft 483 kts 88°
2026-05-06 17:33 51.01735 -18.97803 37035 ft 483 kts 88°
2026-05-06 17:33 51.01865 -18.87190 37034 ft 483 kts 88°
2026-05-06 17:34 51.01984 -18.76613 37034 ft 483 kts 88°
2026-05-06 17:34 51.02094 -18.65976 37033 ft 482 kts 88°
2026-05-06 17:35 51.02194 -18.55363 37033 ft 482 kts 88°
2026-05-06 17:35 51.02285 -18.44740 37032 ft 482 kts 87°
2026-05-06 17:36 51.02402 -18.28911 37030 ft 481 kts 88°
2026-05-06 17:36 51.02468 -18.18349 37030 ft 481 kts 88°
2026-05-06 17:37 51.02526 -18.07731 37029 ft 481 kts 88°
2026-05-06 17:37 51.02573 -17.97166 37029 ft 481 kts 88°
2026-05-06 17:38 51.02610 -17.86620 37028 ft 480 kts 88°
2026-05-06 17:38 51.02639 -17.76026 37021 ft 480 kts 88°
2026-05-06 17:39 51.02657 -17.65470 37019 ft 479 kts 88°
2026-05-06 17:39 51.02667 -17.54951 37024 ft 478 kts 88°
2026-05-06 17:40 51.02667 -17.44412 37025 ft 479 kts 87°
2026-05-06 17:40 51.02657 -17.33886 37023 ft 478 kts 88°
2026-05-06 17:41 51.02638 -17.23416 37022 ft 479 kts 88°
2026-05-06 17:41 51.02609 -17.12863 37020 ft 478 kts 88°
2026-05-06 17:42 51.02571 -17.02354 37020 ft 478 kts 88°
2026-05-06 17:42 51.02523 -16.91804 37019 ft 478 kts 88°
2026-05-06 17:43 51.02467 -16.81335 37018 ft 478 kts 88°
2026-05-06 17:43 51.02400 -16.70817 37018 ft 478 kts 88°
2026-05-06 17:44 51.02325 -16.60311 37017 ft 478 kts 88°
2026-05-06 17:44 51.02240 -16.49819 37016 ft 477 kts 88°
2026-05-06 17:45 51.02145 -16.39307 37016 ft 478 kts 88°
2026-05-06 17:45 51.02040 -16.28758 37016 ft 478 kts 89°
2026-05-06 17:46 51.01928 -16.18284 37015 ft 478 kts 89°
2026-05-06 17:46 51.01805 -16.07810 37015 ft 478 kts 89°
2026-05-06 17:47 51.01673 -15.97295 37015 ft 478 kts 89°
2026-05-06 17:47 51.01531 -15.86773 37008 ft 477 kts 89°
2026-05-06 17:48 51.01380 -15.76323 37006 ft 477 kts 88°
2026-05-06 17:48 51.01220 -15.65819 37013 ft 477 kts 88°
2026-05-06 17:49 51.01051 -15.55359 37013 ft 477 kts 88°
2026-05-06 17:49 51.00871 -15.44822 37013 ft 477 kts 88°
2026-05-06 17:50 51.00684 -15.34392 37012 ft 477 kts 89°
2026-05-06 17:50 51.00486 -15.23882 37011 ft 478 kts 89°
2026-05-06 17:51 51.00278 -15.13353 37011 ft 477 kts 89°
2026-05-06 17:51 51.00063 -15.02941 37011 ft 477 kts 89°
2026-05-06 17:52 50.99974 -14.92441 37013 ft 476 kts 87°
2026-05-06 17:52 51.00032 -14.81992 37013 ft 476 kts 87°
2026-05-06 17:53 51.00070 -14.71525 37012 ft 476 kts 87°
2026-05-06 17:53 51.00092 -14.61069 37012 ft 476 kts 87°
2026-05-06 17:54 51.00102 -14.50578 37012 ft 476 kts 87°
2026-05-06 17:54 51.00100 -14.40137 37012 ft 476 kts 87°
2026-05-06 17:55 51.00088 -14.29620 37011 ft 476 kts 88°
2026-05-06 17:55 51.00066 -14.19215 37011 ft 476 kts 88°
2026-05-06 17:56 51.00034 -14.08710 37011 ft 476 kts 88°
2026-05-06 17:56 50.99433 -13.98284 37006 ft 480 kts 101°
2026-05-06 17:57 50.97415 -13.88243 37011 ft 482 kts 107°
2026-05-06 17:57 50.95230 -13.78200 37009 ft 482 kts 107°
2026-05-06 17:58 50.93036 -13.68195 37009 ft 481 kts 107°
2026-05-06 17:58 50.90841 -13.58242 37010 ft 481 kts 107°
2026-05-06 17:59 50.88640 -13.48319 37010 ft 481 kts 107°
2026-05-06 17:59 50.86417 -13.38349 37011 ft 481 kts 107°
2026-05-06 18:00 50.84183 -13.28380 37010 ft 481 kts 108°
2026-05-06 18:00 50.81957 -13.18494 37010 ft 481 kts 108°
2026-05-06 18:01 50.79710 -13.08562 37009 ft 481 kts 108°
2026-05-06 18:01 50.77448 -12.98612 37008 ft 481 kts 108°
2026-05-06 18:02 50.75188 -12.88715 37008 ft 481 kts 108°
2026-05-06 18:02 50.72916 -12.78811 37008 ft 481 kts 108°
2026-05-06 18:03 50.70644 -12.68959 37007 ft 481 kts 108°
2026-05-06 18:03 50.68351 -12.59050 37007 ft 481 kts 108°
2026-05-06 18:04 50.66066 -12.49228 37007 ft 482 kts 108°
2026-05-06 18:04 50.63756 -12.39348 37006 ft 481 kts 108°
2026-05-06 18:05 50.61436 -12.29468 37006 ft 481 kts 109°
2026-05-06 18:05 50.59119 -12.19649 37006 ft 481 kts 109°
2026-05-06 18:06 50.56792 -12.09829 37006 ft 481 kts 109°
2026-05-06 18:06 50.54452 -11.99997 37005 ft 481 kts 109°
2026-05-06 18:07 50.52116 -11.90230 37006 ft 481 kts 109°
2026-05-06 18:07 50.49764 -11.80431 37006 ft 481 kts 109°
2026-05-06 18:08 50.47396 -11.70625 37006 ft 481 kts 109°
2026-05-06 18:08 50.45036 -11.60882 37008 ft 481 kts 109°
2026-05-06 18:09 50.42653 -11.51092 37008 ft 479 kts 109°
2026-05-06 18:09 50.40276 -11.41373 37009 ft 478 kts 109°
2026-05-06 18:10 50.37903 -11.31710 37010 ft 479 kts 110°
2026-05-06 18:10 50.35505 -11.21988 37010 ft 479 kts 110°
2026-05-06 18:11 50.33514 -11.13947 37010 ft 479 kts 110°
2026-05-06 18:11 50.30699 -11.02632 37010 ft 479 kts 110°
2026-05-06 18:12 50.28291 -10.92990 37011 ft 479 kts 110°
2026-05-06 18:12 50.25859 -10.83304 37010 ft 479 kts 110°
2026-05-06 18:13 50.23434 -10.73683 37010 ft 480 kts 110°
2026-05-06 18:13 50.20986 -10.64015 37010 ft 480 kts 110°
2026-05-06 18:14 50.18538 -10.54387 37010 ft 480 kts 110°
2026-05-06 18:14 50.16068 -10.44712 37009 ft 481 kts 110°
2026-05-06 18:15 50.13601 -10.35093 37010 ft 481 kts 110°
2026-05-06 18:15 50.11119 -10.25454 37009 ft 481 kts 111°
2026-05-06 18:16 50.08632 -10.15839 37009 ft 482 kts 111°
2026-05-06 18:16 50.06133 -10.06216 37009 ft 482 kts 111°
2026-05-06 18:17 50.03616 -9.96566 37010 ft 482 kts 111°
2026-05-06 18:17 50.01102 -9.86968 37011 ft 482 kts 111°
2026-05-06 18:18 49.98576 -9.77362 37011 ft 482 kts 111°
2026-05-06 18:18 49.96045 -9.67781 37013 ft 482 kts 111°
2026-05-06 18:19 49.93499 -9.58183 37013 ft 482 kts 111°
2026-05-06 18:19 49.90945 -9.48594 37014 ft 482 kts 111°
2026-05-06 18:20 49.88391 -9.39042 37010 ft 483 kts 111°
2026-05-06 18:20 49.85817 -9.29456 37006 ft 483 kts 112°
2026-05-06 18:21 49.83241 -9.19902 37004 ft 483 kts 112°
2026-05-06 18:21 49.80662 -9.10379 37003 ft 483 kts 112°
2026-05-06 18:22 49.78064 -9.00821 37003 ft 483 kts 112°
2026-05-06 18:22 49.75461 -8.91286 37003 ft 484 kts 112°
2026-05-06 18:23 49.72829 -8.81686 37002 ft 484 kts 113°
2026-05-06 18:23 49.70206 -8.72154 37002 ft 485 kts 113°
2026-05-06 18:24 49.67580 -8.62651 37002 ft 485 kts 113°
2026-05-06 18:24 49.64932 -8.53109 37002 ft 486 kts 113°
2026-05-06 18:25 49.62274 -8.43567 37001 ft 485 kts 113°
2026-05-06 18:25 49.59610 -8.34041 37002 ft 485 kts 114°
2026-05-06 18:26 49.56934 -8.24514 37006 ft 486 kts 114°
2026-05-06 18:26 49.54258 -8.15023 37011 ft 486 kts 114°
2026-05-06 18:27 49.51562 -8.05500 37012 ft 486 kts 114°
2026-05-06 18:27 49.49252 -7.95779 37010 ft 486 kts 102°
2026-05-06 18:28 49.47932 -7.85638 37014 ft 487 kts 101°
2026-05-06 18:28 49.46602 -7.75464 37015 ft 486 kts 101°
2026-05-06 18:29 49.45240 -7.65315 37015 ft 487 kts 101°
2026-05-06 18:29 49.43851 -7.55150 37016 ft 487 kts 101°
2026-05-06 18:30 49.42445 -7.44979 37017 ft 487 kts 101°
2026-05-06 18:30 49.41023 -7.34806 37017 ft 488 kts 102°
2026-05-06 18:31 49.40302 -7.29681 37128 ft 492 kts 102°
2026-05-06 18:31 49.39585 -7.24601 37450 ft 490 kts 102°
2026-05-06 18:31 49.38864 -7.19509 37768 ft 487 kts 102°
2026-05-06 18:31 49.38147 -7.14469 37952 ft 488 kts 102°
2026-05-06 18:32 49.37586 -7.09382 38066 ft 490 kts 97°
2026-05-06 18:32 49.37190 -7.04157 38215 ft 491 kts 96°
2026-05-06 18:32 49.36811 -6.99012 38384 ft 491 kts 96°
2026-05-06 18:32 49.36426 -6.93837 38550 ft 491 kts 96°
2026-05-06 18:33 49.36034 -6.88618 38705 ft 491 kts 96°
2026-05-06 18:33 49.35638 -6.83406 38849 ft 492 kts 96°
2026-05-06 18:33 49.35242 -6.78223 38972 ft 492 kts 96°
2026-05-06 18:33 49.34840 -6.73010 39000 ft 494 kts 96°
2026-05-06 18:34 49.34031 -6.62608 39007 ft 493 kts 96°
2026-05-06 18:34 49.33215 -6.52251 39016 ft 493 kts 96°
2026-05-06 18:35 49.32385 -6.41866 39018 ft 493 kts 96°
2026-05-06 18:35 49.31547 -6.31490 39018 ft 493 kts 97°
2026-05-06 18:36 49.30697 -6.21085 39017 ft 493 kts 97°
2026-05-06 18:36 49.29842 -6.10745 39017 ft 493 kts 97°
2026-05-06 18:37 49.29117 -6.02047 39015 ft 493 kts 97°
2026-05-06 18:37 49.28094 -5.89938 39009 ft 493 kts 97°
2026-05-06 18:38 49.27213 -5.79617 39008 ft 494 kts 97°
2026-05-06 18:38 49.26315 -5.69216 39009 ft 494 kts 97°
2026-05-06 18:39 49.25409 -5.58833 39009 ft 494 kts 97°
2026-05-06 18:40 49.24033 -5.43280 39005 ft 494 kts 97°
2026-05-06 18:40 49.23105 -5.32920 38999 ft 493 kts 98°
2026-05-06 18:41 49.22166 -5.22554 38996 ft 493 kts 98°
2026-05-06 18:41 49.21218 -5.12199 38995 ft 493 kts 98°
2026-05-06 18:42 49.20268 -5.01910 38997 ft 493 kts 98°
2026-05-06 18:42 49.19297 -4.91507 39000 ft 493 kts 98°
2026-05-06 18:43 49.18324 -4.81184 39000 ft 493 kts 98°
2026-05-06 18:43 49.17341 -4.70854 38997 ft 493 kts 98°
2026-05-06 18:44 49.16352 -4.60568 38997 ft 493 kts 98°
2026-05-06 18:44 49.15346 -4.50201 38997 ft 494 kts 98°
2026-05-06 18:45 49.14334 -4.39866 38998 ft 494 kts 98°
2026-05-06 18:45 49.13309 -4.29502 38996 ft 494 kts 98°
2026-05-06 18:46 49.12282 -4.19219 38996 ft 494 kts 98°
2026-05-06 18:46 49.11245 -4.08929 38996 ft 494 kts 98°
2026-05-06 18:47 49.10192 -3.98569 38996 ft 494 kts 98°
2026-05-06 18:47 49.09131 -3.88240 38994 ft 494 kts 98°
2026-05-06 18:48 49.08068 -3.77972 38987 ft 493 kts 98°
2026-05-06 18:48 49.06989 -3.67645 38989 ft 493 kts 98°
2026-05-06 18:49 49.05928 -3.57577 38994 ft 493 kts 98°
2026-05-06 18:49 49.04835 -3.47306 38994 ft 493 kts 98°
2026-05-06 18:50 49.03731 -3.37015 38994 ft 493 kts 98°
2026-05-06 18:50 49.02620 -3.26751 38992 ft 493 kts 99°
2026-05-06 18:51 49.01496 -3.16456 38992 ft 493 kts 99°
2026-05-06 18:51 49.00366 -3.06185 38992 ft 494 kts 99°
2026-05-06 18:52 48.99224 -2.95897 38992 ft 494 kts 99°
2026-05-06 18:52 48.98075 -2.85641 38992 ft 494 kts 99°
2026-05-06 18:53 48.96912 -2.75345 38992 ft 494 kts 99°
2026-05-06 18:53 48.95747 -2.65112 38995 ft 494 kts 99°
2026-05-06 18:54 48.94570 -2.54861 38995 ft 494 kts 99°
2026-05-06 18:54 48.93481 -2.44593 38992 ft 493 kts 94°
2026-05-06 18:55 48.93177 -2.34182 38995 ft 493 kts 92°
2026-05-06 18:55 48.92869 -2.23796 38993 ft 493 kts 92°
2026-05-06 18:56 48.92515 -2.13400 38993 ft 493 kts 93°
2026-05-06 18:56 48.92134 -2.03064 38993 ft 493 kts 93°
2026-05-06 18:57 48.91730 -1.92627 38994 ft 493 kts 93°
2026-05-06 18:57 48.91316 -1.82306 38993 ft 493 kts 93°
2026-05-06 18:58 48.90884 -1.71872 38991 ft 493 kts 93°
2026-05-06 18:58 48.90449 -1.61576 38991 ft 493 kts 93°
2026-05-06 18:59 48.89998 -1.51164 38994 ft 493 kts 93°
2026-05-06 18:59 48.89543 -1.40836 38992 ft 493 kts 93°
2026-05-06 19:00 48.89076 -1.30432 38990 ft 493 kts 94°
2026-05-06 19:00 48.88600 -1.20055 38989 ft 493 kts 94°
2026-05-06 19:01 48.88117 -1.09702 38989 ft 493 kts 94°
2026-05-06 19:01 48.87624 -0.99368 38989 ft 493 kts 94°
2026-05-06 19:02 48.87123 -0.89035 38989 ft 493 kts 94°
2026-05-06 19:02 48.86611 -0.78688 38988 ft 493 kts 94°
2026-05-06 19:03 48.86088 -0.68310 38988 ft 493 kts 94°
2026-05-06 19:03 48.85557 -0.57943 38987 ft 493 kts 94°
2026-05-06 19:04 48.85019 -0.47643 38988 ft 493 kts 94°
2026-05-06 19:04 48.84473 -0.37351 38988 ft 493 kts 94°
2026-05-06 19:05 48.83911 -0.26946 38987 ft 493 kts 95°
2026-05-06 19:05 48.83328 -0.16657 38987 ft 493 kts 95°
2026-05-06 19:06 48.82720 -0.06310 38987 ft 493 kts 95°
2026-05-06 19:06 48.82106 0.04005 38975 ft 493 kts 95°
2026-05-06 19:07 48.81478 0.14391 38955 ft 493 kts 95°
2026-05-06 19:07 48.80839 0.24814 38967 ft 494 kts 95°
2026-05-06 19:08 48.80194 0.35179 38982 ft 494 kts 95°
2026-05-06 19:08 48.79544 0.45463 38980 ft 493 kts 96°
2026-05-06 19:09 48.78712 0.55799 38980 ft 493 kts 101°
2026-05-06 19:09 48.77428 0.65967 38975 ft 494 kts 102°
2026-05-06 19:10 48.76118 0.76181 38972 ft 494 kts 102°
2026-05-06 19:10 48.74805 0.86360 38971 ft 494 kts 102°
2026-05-06 19:11 48.73489 0.96521 38968 ft 493 kts 102°
2026-05-06 19:11 48.72166 1.06699 38966 ft 493 kts 102°
2026-05-06 19:12 48.70838 1.16836 38963 ft 494 kts 102°
2026-05-06 19:12 48.69500 1.26983 38964 ft 494 kts 102°
2026-05-06 19:13 48.68145 1.37177 38963 ft 494 kts 102°
2026-05-06 19:13 48.66795 1.47278 38962 ft 494 kts 102°
2026-05-06 19:14 48.65429 1.57420 38961 ft 494 kts 102°
2026-05-06 19:14 48.64045 1.67617 38960 ft 494 kts 103°
2026-05-06 19:15 48.62658 1.77719 38959 ft 494 kts 103°
2026-05-06 19:15 48.61251 1.87890 38960 ft 494 kts 103°
2026-05-06 19:16 48.59839 1.98025 38962 ft 494 kts 103°
2026-05-06 19:16 48.58424 2.08128 38961 ft 494 kts 103°
2026-05-06 19:17 48.57036 2.18255 38955 ft 495 kts 99°
2026-05-06 19:17 48.56580 2.28624 38964 ft 497 kts 93°
2026-05-06 19:18 48.56298 2.38974 38967 ft 496 kts 93°
2026-05-06 19:18 48.56002 2.49322 38967 ft 496 kts 93°
2026-05-06 19:19 48.55694 2.59708 38961 ft 496 kts 93°
2026-05-06 19:19 48.55376 2.70060 38951 ft 496 kts 94°
2026-05-06 19:20 48.55048 2.80404 38945 ft 496 kts 94°
2026-05-06 19:20 48.54710 2.90792 38939 ft 496 kts 94°
2026-05-06 19:21 48.54362 3.01135 38937 ft 496 kts 94°
2026-05-06 19:21 48.54005 3.11500 38937 ft 497 kts 94°
2026-05-06 19:22 48.53638 3.21891 38936 ft 497 kts 94°
2026-05-06 19:22 48.53261 3.32281 38935 ft 497 kts 94°
2026-05-06 19:23 48.52875 3.42652 38939 ft 497 kts 94°
2026-05-06 19:23 48.52478 3.53059 38943 ft 497 kts 94°
2026-05-06 19:24 48.52071 3.63520 38939 ft 497 kts 94°
2026-05-06 19:24 48.51655 3.73935 38933 ft 498 kts 95°
2026-05-06 19:25 48.51228 3.84399 38928 ft 498 kts 95°
2026-05-06 19:25 48.50794 3.94793 38924 ft 497 kts 95°
2026-05-06 19:26 48.49905 4.05143 38923 ft 495 kts 105°
2026-05-06 19:26 48.48126 4.15147 38921 ft 496 kts 107°
2026-05-06 19:27 48.46293 4.25210 38921 ft 495 kts 107°
2026-05-06 19:27 48.44456 4.35233 38922 ft 495 kts 107°
2026-05-06 19:28 48.42598 4.45304 38922 ft 496 kts 107°
2026-05-06 19:28 48.40740 4.55320 38922 ft 496 kts 107°
2026-05-06 19:29 48.38878 4.65311 38922 ft 496 kts 108°
2026-05-06 19:29 48.36992 4.75364 38919 ft 495 kts 108°
2026-05-06 19:30 48.35112 4.85332 38918 ft 495 kts 108°
2026-05-06 19:30 48.33221 4.95309 38918 ft 496 kts 108°
2026-05-06 19:31 48.31318 5.05294 38918 ft 496 kts 108°
2026-05-06 19:31 48.28421 5.20280 38920 ft 495 kts 109°
2026-05-06 19:32 48.26423 5.30208 38923 ft 495 kts 109°
2026-05-06 19:32 48.24420 5.40121 38924 ft 495 kts 109°
2026-05-06 19:33 48.22400 5.50075 38926 ft 496 kts 109°
2026-05-06 19:33 48.20383 5.59973 38925 ft 496 kts 109°
2026-05-06 19:34 48.18346 5.69918 38921 ft 496 kts 110°
2026-05-06 19:34 48.16306 5.79834 38919 ft 496 kts 110°
2026-05-06 19:35 48.14269 5.89684 38917 ft 496 kts 110°
2026-05-06 19:35 48.12204 5.99624 38915 ft 496 kts 110°
2026-05-06 19:36 48.10139 6.09514 38915 ft 496 kts 110°
2026-05-06 19:36 48.08076 6.19344 38912 ft 496 kts 110°
2026-05-06 19:37 48.05977 6.29297 38910 ft 496 kts 110°
2026-05-06 19:37 48.04230 6.37542 38910 ft 496 kts 110°
2026-05-06 19:38 48.01792 6.48999 38913 ft 496 kts 110°
2026-05-06 19:38 47.99677 6.58883 38918 ft 496 kts 110°
2026-05-06 19:39 47.97502 6.68698 38917 ft 495 kts 114°
2026-05-06 19:39 47.94935 6.78276 38927 ft 495 kts 115°
2026-05-06 19:40 47.92336 6.87844 38936 ft 496 kts 115°
2026-05-06 19:40 47.89722 6.97443 38939 ft 496 kts 115°
2026-05-06 19:41 47.87104 7.07015 38938 ft 496 kts 115°
2026-05-06 19:41 47.84508 7.16473 38929 ft 496 kts 115°
2026-05-06 19:42 47.81890 7.25971 38925 ft 496 kts 115°
2026-05-06 19:42 47.79279 7.35408 38927 ft 496 kts 115°
2026-05-06 19:43 47.76658 7.44848 38930 ft 497 kts 115°
2026-05-06 19:43 47.73884 7.54196 38928 ft 493 kts 122°
2026-05-06 19:44 47.70035 7.62529 38938 ft 490 kts 129°
2026-05-06 19:44 47.65997 7.70689 38889 ft 489 kts 130°
2026-05-06 19:45 47.61975 7.78783 38916 ft 488 kts 130°
2026-05-06 19:45 47.57910 7.86931 38942 ft 490 kts 130°
2026-05-06 19:46 47.53856 7.95035 38940 ft 489 kts 130°
2026-05-06 19:46 47.49812 8.03091 38938 ft 489 kts 130°
2026-05-06 19:47 47.45765 8.11137 38940 ft 489 kts 130°
2026-05-06 19:47 47.41710 8.19167 38946 ft 489 kts 130°
2026-05-06 19:48 47.37653 8.27169 38947 ft 489 kts 130°
2026-05-06 19:48 47.33591 8.35164 38944 ft 489 kts 130°
2026-05-06 19:49 47.29528 8.43184 38950 ft 489 kts 130°
2026-05-06 19:49 47.25438 8.51181 38946 ft 489 kts 130°
2026-05-06 19:50 47.21432 8.59276 38946 ft 489 kts 129°
2026-05-06 19:50 47.17425 8.67392 38951 ft 489 kts 130°
2026-05-06 19:51 47.13422 8.75440 38961 ft 488 kts 130°
2026-05-06 19:51 47.09432 8.83482 38814 ft 491 kts 130°
2026-05-06 19:52 47.07438 8.87483 38611 ft 491 kts 130°
2026-05-06 19:52 47.05426 8.91516 38403 ft 488 kts 130°
2026-05-06 19:52 47.03430 8.95500 38194 ft 487 kts 130°
2026-05-06 19:52 47.01437 8.99470 38003 ft 485 kts 130°
2026-05-06 19:53 46.99423 9.03481 37810 ft 485 kts 130°
2026-05-06 19:53 46.97426 9.07448 37619 ft 485 kts 131°
2026-05-06 19:53 46.95428 9.11412 37420 ft 485 kts 131°
2026-05-06 19:53 46.93415 9.15404 37253 ft 482 kts 131°
2026-05-06 19:54 46.89465 9.23233 37314 ft 482 kts 131°
2026-05-06 19:54 46.85472 9.31139 37591 ft 481 kts 131°
2026-05-06 19:55 46.83493 9.35026 37797 ft 480 kts 131°
2026-05-06 19:55 46.81484 9.38977 38001 ft 480 kts 132°
2026-05-06 19:55 46.79483 9.42903 38208 ft 479 kts 132°
2026-05-06 19:55 46.77503 9.46774 38413 ft 478 kts 131°
2026-05-06 19:56 46.75522 9.50642 38625 ft 476 kts 131°
2026-05-06 19:56 46.73541 9.54508 38840 ft 475 kts 131°
2026-05-06 19:56 46.71586 9.58312 39021 ft 474 kts 131°
2026-05-06 19:56 46.69622 9.62163 39068 ft 477 kts 131°
2026-05-06 19:57 46.65622 9.69970 39097 ft 483 kts 131°
2026-05-06 19:57 46.61573 9.77809 39122 ft 489 kts 131°
2026-05-06 19:58 46.57487 9.85708 39125 ft 490 kts 131°
2026-05-06 19:58 46.53380 9.93667 39135 ft 490 kts 131°
2026-05-06 19:59 46.49292 10.01523 39138 ft 491 kts 131°
2026-05-06 19:59 46.45330 10.09659 39088 ft 494 kts 126°
2026-05-06 20:00 46.41699 10.18094 38998 ft 493 kts 126°
2026-05-06 20:00 46.38043 10.26522 38915 ft 493 kts 126°
2026-05-06 20:01 46.34351 10.34932 38913 ft 493 kts 127°
2026-05-06 20:01 46.30662 10.43272 38928 ft 494 kts 127°
2026-05-06 20:02 46.26943 10.51666 38939 ft 494 kts 127°
2026-05-06 20:02 46.23221 10.60043 38952 ft 493 kts 127°
2026-05-06 20:03 46.19490 10.68403 38989 ft 493 kts 127°
2026-05-06 20:03 46.15759 10.76732 39000 ft 493 kts 127°
2026-05-06 20:04 46.12017 10.85010 38896 ft 492 kts 128°
2026-05-06 20:04 46.08318 10.93247 38829 ft 491 kts 128°
2026-05-06 20:05 46.04592 11.01500 38795 ft 491 kts 128°
2026-05-06 20:05 46.00863 11.09724 38734 ft 491 kts 128°
2026-05-06 20:06 45.97096 11.18006 38650 ft 490 kts 128°
2026-05-06 20:06 45.93382 11.26148 38678 ft 490 kts 128°
2026-05-06 20:07 45.89621 11.34368 38753 ft 491 kts 128°
2026-05-06 20:07 45.85834 11.42621 38778 ft 492 kts 128°
2026-05-06 20:08 45.82064 11.50814 38789 ft 491 kts 128°
2026-05-06 20:08 45.80161 11.54941 38988 ft 487 kts 128°
2026-05-06 20:08 45.78302 11.58967 39201 ft 487 kts 128°
2026-05-06 20:09 45.76430 11.63016 39415 ft 486 kts 128°
2026-05-06 20:09 45.74551 11.67071 39628 ft 486 kts 129°
2026-05-06 20:09 45.72680 11.71106 39877 ft 485 kts 129°
2026-05-06 20:09 45.70787 11.75178 39855 ft 490 kts 129°
2026-05-06 20:10 45.68880 11.79273 39657 ft 496 kts 129°
2026-05-06 20:10 45.66950 11.83417 39473 ft 495 kts 128°
2026-05-06 20:10 45.65032 11.87531 39280 ft 492 kts 129°
2026-05-06 20:10 45.63143 11.91577 39089 ft 490 kts 129°
2026-05-06 20:11 45.61239 11.95647 38895 ft 490 kts 129°
2026-05-06 20:11 45.59333 11.99715 38748 ft 488 kts 129°
2026-05-06 20:11 45.57439 12.03756 38920 ft 483 kts 129°
2026-05-06 20:11 45.55582 12.07708 39099 ft 483 kts 129°
2026-05-06 20:12 45.53699 12.11707 39298 ft 482 kts 129°
2026-05-06 20:12 45.51818 12.15702 39617 ft 479 kts 129°
2026-05-06 20:12 45.48058 12.23657 39715 ft 488 kts 129°
2026-05-06 20:13 45.44190 12.31824 39893 ft 493 kts 128°
2026-05-06 20:13 45.40308 12.39997 39768 ft 496 kts 128°
2026-05-06 20:14 45.38352 12.44105 39584 ft 494 kts 128°
2026-05-06 20:14 45.36400 12.48201 39410 ft 491 kts 128°
2026-05-06 20:14 45.34508 12.52169 39281 ft 489 kts 128°
2026-05-06 20:14 45.32581 12.56202 39158 ft 489 kts 128°
2026-05-06 20:15 45.30629 12.60279 39036 ft 490 kts 128°
2026-05-06 20:15 45.28715 12.64273 38911 ft 490 kts 128°
2026-05-06 20:15 45.24857 12.72306 38882 ft 489 kts 129°
2026-05-06 20:16 45.20969 12.80378 38906 ft 492 kts 129°
2026-05-06 20:16 45.17083 12.88424 38918 ft 491 kts 129°
2026-05-06 20:17 45.13179 12.96483 38926 ft 491 kts 129°
2026-05-06 20:17 45.09282 13.04505 38932 ft 491 kts 129°
2026-05-06 20:18 45.05417 13.12438 38936 ft 491 kts 129°
2026-05-06 20:18 45.01521 13.20415 38939 ft 491 kts 129°
2026-05-06 20:19 44.97642 13.28334 38942 ft 492 kts 129°
2026-05-06 20:19 44.93732 13.36294 38946 ft 492 kts 129°
2026-05-06 20:20 44.89839 13.44199 38950 ft 492 kts 129°
2026-05-06 20:20 44.86563 13.50832 38961 ft 493 kts 129°
2026-05-06 20:21 44.82487 13.58680 38966 ft 491 kts 132°
2026-05-06 20:21 44.78331 13.66288 38976 ft 492 kts 133°
2026-05-06 20:22 44.74157 13.73908 38983 ft 491 kts 133°
2026-05-06 20:22 44.69952 13.81562 38986 ft 492 kts 133°
2026-05-06 20:23 44.65780 13.89138 39000 ft 493 kts 133°
2026-05-06 20:23 44.61572 13.96757 39014 ft 493 kts 133°
2026-05-06 20:24 44.57360 14.04364 39032 ft 494 kts 133°
2026-05-06 20:24 44.53133 14.11981 38887 ft 490 kts 133°
2026-05-06 20:25 44.51026 14.15766 38172 ft 498 kts 133°
2026-05-06 20:25 44.48855 14.19658 37250 ft 508 kts 133°
2026-05-06 20:25 44.46659 14.23594 36374 ft 513 kts 133°
2026-05-06 20:25 44.44465 14.27522 35572 ft 515 kts 133°
2026-05-06 20:26 44.42274 14.31443 34727 ft 512 kts 133°
2026-05-06 20:26 44.40109 14.35316 33840 ft 502 kts 134°
2026-05-06 20:26 44.37948 14.39171 33037 ft 502 kts 134°
2026-05-06 20:26 44.35798 14.42998 32109 ft 505 kts 134°
2026-05-06 20:27 44.33619 14.46871 31199 ft 507 kts 134°
2026-05-06 20:27 44.31428 14.50761 30444 ft 505 kts 134°
2026-05-06 20:27 44.29272 14.54591 29942 ft 497 kts 133°
2026-05-06 20:27 44.27146 14.58360 29413 ft 489 kts 133°
2026-05-06 20:28 44.25057 14.62058 28862 ft 483 kts 133°
2026-05-06 20:28 44.22982 14.65726 28343 ft 478 kts 134°
2026-05-06 20:28 44.20932 14.69342 27813 ft 473 kts 134°
2026-05-06 20:28 44.18910 14.72905 27275 ft 469 kts 134°
2026-05-06 20:29 44.16872 14.76492 26719 ft 465 kts 134°
2026-05-06 20:29 44.14875 14.80004 26158 ft 462 kts 133°
2026-05-06 20:29 44.12891 14.83486 25601 ft 458 kts 133°
2026-05-06 20:29 44.10903 14.86972 25040 ft 454 kts 133°
2026-05-06 20:30 44.08945 14.90401 24491 ft 450 kts 133°
2026-05-06 20:30 44.05099 14.97126 23395 ft 442 kts 133°
2026-05-06 20:30 44.03172 15.00488 22848 ft 438 kts 133°
2026-05-06 20:31 44.01286 15.03777 22296 ft 435 kts 133°
2026-05-06 20:31 43.99413 15.07038 21771 ft 431 kts 132°
2026-05-06 20:31 43.97538 15.10300 21228 ft 428 kts 132°
2026-05-06 20:31 43.95699 15.13496 20666 ft 426 kts 132°
2026-05-06 20:32 43.93776 15.16635 20094 ft 420 kts 138°
2026-05-06 20:32 43.91636 15.19356 19518 ft 415 kts 142°
2026-05-06 20:32 43.89470 15.21972 18937 ft 412 kts 142°
2026-05-06 20:32 43.87307 15.24572 18364 ft 409 kts 142°
2026-05-06 20:33 43.85168 15.27139 17787 ft 407 kts 142°
2026-05-06 20:33 43.83035 15.29694 17201 ft 404 kts 142°
2026-05-06 20:33 43.80933 15.32208 16624 ft 401 kts 142°
2026-05-06 20:33 43.78831 15.34719 16038 ft 398 kts 142°
2026-05-06 20:34 43.76733 15.37224 15443 ft 395 kts 142°
2026-05-06 20:34 43.74674 15.39679 14856 ft 392 kts 141°
2026-05-06 20:34 43.72606 15.42144 14262 ft 388 kts 142°
2026-05-06 20:34 43.70591 15.44544 13677 ft 385 kts 142°
2026-05-06 20:35 43.68586 15.46923 13095 ft 381 kts 142°
2026-05-06 20:35 43.66560 15.49329 12503 ft 378 kts 142°
2026-05-06 20:35 43.64585 15.51674 11917 ft 375 kts 142°
2026-05-06 20:35 43.62621 15.54003 11335 ft 371 kts 142°
2026-05-06 20:36 43.60681 15.56300 10859 ft 364 kts 142°
2026-05-06 20:36 43.58814 15.58510 10742 ft 348 kts 142°
2026-05-06 20:36 43.57028 15.60624 10657 ft 332 kts 142°
2026-05-06 20:36 43.55312 15.62651 10551 ft 318 kts 142°
2026-05-06 20:37 43.54207 15.63954 10472 ft 310 kts 142°
2026-05-06 20:37 43.52057 15.66488 10310 ft 294 kts 143°
2026-05-06 20:37 43.50534 15.68284 10190 ft 284 kts 143°
2026-05-06 20:37 43.49054 15.70025 10063 ft 275 kts 143°
2026-05-06 20:38 43.47609 15.71722 9746 ft 274 kts 143°
2026-05-06 20:38 43.46157 15.73429 9393 ft 274 kts 143°
2026-05-06 20:38 43.44727 15.75107 9060 ft 273 kts 143°
2026-05-06 20:38 43.43284 15.76800 8736 ft 272 kts 143°
2026-05-06 20:39 43.41812 15.78392 8414 ft 267 kts 154°
2026-05-06 20:39 43.40055 15.79099 8083 ft 259 kts 179°
2026-05-06 20:39 43.38318 15.78667 7831 ft 253 kts 204°
2026-05-06 20:39 43.36887 15.77338 7745 ft 251 kts 219°
2026-05-06 20:40 43.35567 15.75686 7630 ft 255 kts 222°
2026-05-06 20:40 43.34316 15.73981 7484 ft 255 kts 223°
2026-05-06 20:40 43.32890 15.72598 7311 ft 251 kts 201°
2026-05-06 20:40 43.31183 15.72125 6637 ft 256 kts 178°
2026-05-06 20:41 43.29484 15.72775 6082 ft 254 kts 150°
2026-05-06 20:41 43.28124 15.74219 5774 ft 250 kts 141°
2026-05-06 20:41 43.26833 15.75884 5485 ft 253 kts 138°
2026-05-06 20:41 43.25632 15.77618 5187 ft 253 kts 127°
2026-05-06 20:42 43.25024 15.79878 4882 ft 257 kts 97°
2026-05-06 20:42 43.25303 15.82271 4584 ft 261 kts 68°
2026-05-06 20:42 43.26371 15.84259 4266 ft 263 kts 47°
2026-05-06 20:42 43.27669 15.86052 3937 ft 264 kts 48°
2026-05-06 20:43 43.28951 15.87887 3622 ft 264 kts 49°
2026-05-06 20:43 43.30187 15.89705 3328 ft 263 kts 50°
2026-05-06 20:43 43.31425 15.91558 3077 ft 261 kts 50°
2026-05-06 20:43 43.32628 15.93359 3002 ft 251 kts 49°
2026-05-06 20:44 43.33815 15.95103 3000 ft 253 kts 50°
2026-05-06 20:44 43.34992 15.96926 3005 ft 253 kts 51°
2026-05-06 20:44 43.36129 15.98755 3006 ft 253 kts 52°
2026-05-06 20:44 43.37264 16.00644 3006 ft 253 kts 53°
2026-05-06 20:45 43.38375 16.02521 3007 ft 253 kts 53°
2026-05-06 20:45 43.39467 16.04390 3001 ft 253 kts 53°
2026-05-06 20:45 43.40556 16.06269 2997 ft 243 kts 53°
2026-05-06 20:45 43.41579 16.08016 2996 ft 231 kts 53°
2026-05-06 20:46 43.42560 16.09689 2995 ft 219 kts 53°
2026-05-06 20:46 43.43491 16.11299 2997 ft 211 kts 54°
2026-05-06 20:46 43.44409 16.12913 2895 ft 214 kts 54°
2026-05-06 20:46 43.45267 16.14431 2644 ft 191 kts 54°
2026-05-06 20:47 43.46068 16.15845 2395 ft 181 kts 54°
2026-05-06 20:47 43.46803 16.17147 2153 ft 164 kts 55°
2026-05-06 20:47 43.47471 16.18331 1961 ft 154 kts 55°
2026-05-06 20:47 43.48117 16.19483 1756 ft 149 kts 55°
2026-05-06 20:48 43.48748 16.20606 1552 ft 148 kts 55°
2026-05-06 20:48 43.49371 16.21718 1328 ft 145 kts 55°
2026-05-06 20:48 43.49992 16.22808 1095 ft 145 kts 56°
2026-05-06 20:48 43.50621 16.23887 878 ft 145 kts 51°
2026-05-06 20:49 43.51221 16.24960 683 ft 136 kts 60°
2026-05-06 20:49 43.51794 16.26018 564 ft 138 kts 53°
2026-05-06 20:49 43.52385 16.27084 364 ft 142 kts 57°
2026-05-06 20:49 43.52981 16.28136 201 ft 136 kts 54°
2026-05-06 20:50 43.53533 16.29134 80 ft 120 kts 55°
2026-05-06 20:50 43.53943 16.29888 71 ft 75 kts 52°
2026-05-06 20:50 43.54169 16.30294 67 ft 31 kts 52°
2026-05-06 20:50 43.54239 16.30424 63 ft 25 kts 54°
2026-05-06 20:51 43.54350 16.30618 58 ft 18 kts 49°
2026-05-06 20:51 43.54430 16.30763 58 ft 19 kts 55°
2026-05-06 20:51 43.54503 16.30891 59 ft 15 kts 53°
2026-05-06 20:51 43.54546 16.30992 62 ft 10 kts 87°
2026-05-06 20:52 43.54571 16.31036 63 ft 3 kts 340°
2026-05-06 20:52 43.54567 16.30998 62 ft 12 kts 232°
2026-05-06 20:52 43.54489 16.30868 58 ft 20 kts 232°
2026-05-06 20:52 43.54403 16.30711 57 ft 21 kts 232°
2026-05-06 20:53 43.54314 16.30552 60 ft 20 kts 232°
2026-05-06 20:53 43.54229 16.30400 64 ft 18 kts 232°
2026-05-06 20:53 43.54158 16.30272 68 ft 16 kts 232°
2026-05-06 20:53 43.54095 16.30161 69 ft 11 kts 228°
2026-05-06 20:54 43.54055 16.30107 69 ft 7 kts 227°
2026-05-06 20:54 43.54020 16.30033 70 ft 12 kts 235°
2026-05-06 20:54 43.53960 16.29918 71 ft 18 kts 233°
2026-05-06 20:54 43.53882 16.29777 72 ft 19 kts 232°
2026-05-06 20:55 43.53799 16.29628 72 ft 20 kts 232°
2026-05-06 20:55 43.53725 16.29502 74 ft 9 kts 210°
2026-05-06 20:55 43.53693 16.29539 72 ft 1 kts 88°
2026-05-06 20:55 43.53695 16.29593 70 ft 8 kts 92°
2026-05-06 20:56 43.53704 16.29686 68 ft 11 kts 60°
2026-05-06 20:56 43.53747 16.29768 68 ft 11 kts 53°
2026-05-06 20:56 43.53778 16.29838 68 ft 6 kts 73°
2026-05-06 20:56 43.53777 16.29882 67 ft 2 kts 111°
2026-05-06 20:57 43.53767 16.29916 66 ft 0 kts 110°
2026-05-06 20:57 43.53766 16.29923 65 ft 0 kts 111°